AirNav   ProFlight Series 2 Aviation Headset
 
 951 users online  

53MO Help Heliport
Zalma, Missouri, USA

GOING TO ZALMA?


FAA INFORMATION EFFECTIVE 18 JUNE 2020

Location

FAA Identifier: 53MO
Lat/Long: 37-09-05.4100N 090-04-16.7400W
37-09.090167N 090-04.279000W
37.1515028,-90.0713167
(estimated)
Elevation: 475 ft. / 145 m (estimated)
Variation: 01E (1990)
From city: 1 mile S of ZALMA, MO
Time zone: UTC -5 (UTC -6 during Standard Time)
Zip code: 63782

Heliport Operations

Heliport use: Private use. Permission required prior to landing
Activation date: 04/1993
Control tower: no
ARTCC: MEMPHIS CENTER
FSS: SAINT LOUIS FLIGHT SERVICE STATION
Attendance: UNATNDD
Segmented circle: no

Nearby radio navigation aids

VOR radial/distance  VOR name  Freq  Var
CGIr261/24.3CAPE GIRARDEAU VOR/DME112.9002W
FAMr165/32.3FARMINGTON VORTAC115.7001E
MAWr345/36.6MALDEN VORTAC111.2003E

Heliport Services

Runway Information

Helipad H1

Dimensions: 30 x 18 ft. / 9 x 5 m
Surface: concrete
Latitude: 37-09.090167N
Longitude: 090-04.274500W
Elevation: 391.0 ft.
Traffic pattern: leftleft

Heliport Ownership and Management from official FAA records

Ownership: Privately-owned
Owner: ZALMA NEIGHBORHOOD WATCH
ROUTE 1
ZALMA, MO 63787
Phone 573-722-5766
Manager: CONRAD WARD - CHIEF OF POLICE
ROUTE 1
ZALMA, MO 63787
Phone 314-238-2633

Additional Remarks

FOR CD CTC MEMPHIS ARTCC AT 901-368-8453.

Instrument Procedures

There are no published instrument procedures at 53MO.

Some nearby airports with instrument procedures:

KDXE - Dexter Municipal Airport (23 nm S)
KCGI - Cape Girardeau Regional Airport (24 nm E)
KPOF - Poplar Bluff Municipal Airport (26 nm SW)
KSIK - Sikeston Memorial Municipal Airport (29 nm SE)
H88 - A Paul Vance Fredericktown Regional Airport (29 nm N)
 
Loc | Ops | Rwys | IFR | FBO | Links
Com | Nav | Svcs | Stats | Notes
Area around 53MO (Help Heliport)
 
Road maps at: MapQuest Bing Google
 
Aerial photo
No photo
 
Sectional chart

 
Airport distance calculator
Flying to Help Heliport? Find the distance to fly.

From to 53MO

Sunrise and sunset
Times for 15-Jul-2020
 Local
(UTC-5)
 Zulu
(UTC)
Morning civil twilight05:2410:24
Sunrise05:5410:54
Sunset20:1901:19
Evening civil twilight20:4901:49

Current date and time
Zulu (UTC)  15-Jul-2020 13:05:25
Local (UTC-5)  15-Jul-2020 08:05:25
 
METAR
KCGI 
24nm E 
151253Z 16007KT 10SM BKN050 OVC060 26/20 A3000 RMK AO2 SLP155 T02610200
KPOF 
26nm SW 
151253Z AUTO 19004KT 10SM BKN030 BKN060 27/21 A3000 RMK AO2 SLP152 T02670211
KSIK 
29nm SE 
151255Z AUTO 15007KT 10SM SCT060 26/22 A3001 RMK AO2
KMAW 
33nm S 
151255Z AUTO 17010KT 10SM CLR 28/21 A3001 RMK AO2
KFAM 
40nm NW 
151256Z AUTO 15004KT 10SM BKN032 25/22 A3002 RMK AO2 SLP168 T02500217
KCIR 
41nm E 
151255Z AUTO 14006KT 10SM BKN050 BKN075 26/20 A3002 RMK AO2 T02580204
KPCD 
44nm N 
151255Z AUTO 10006KT 10SM OVC045 25/20 A3000 RMK AO2 T02450204
TAF
KCGI 
24nm E 
151120Z 1512/1612 15006KT P6SM BKN050 FM151500 17007KT P6SM BKN180 FM151800 17009KT P6SM SCT050 FM160500 18006KT P6SM BKN050
NOTAMs
Click for the latest NOTAMs
NOTAMs are issued by the DoD/FAA and will open in a separate window not controlled by AirNav.

 

 
 

Would you like to see your business listed on this page?

 If your business provides an interesting product or service to pilots, flight crews, aircraft, or users of the Help Heliport, you should consider listing it here.  To start the listing process, click on the button below
 
Add a business
 

Other Pages about Help Heliport

Update a link
 
Copyright © AirNav, LLC. All rights reserved. Privacy Policy  Contact